Regional Weather Roundup
Issued by NWS Lake Charles, LA

Home | Current Version | Previous Version | Text Only | Print | Product List | Glossary On
Versions: 1 2 3 4 5 6 7 8 9 10 11 12 13 14 15 16 17 18 19 20 21 22 23 24 25 26 27 28 29 30 31 32 33 34 35 36 37 38 39 40 41 42 43 44 45 46 47 48 49 50
000
ASUS44 KLCH 280210
RWRLCH
RWRLCH
REGIONAL WEATHER ROUNDUP
NATIONAL WEATHER SERVICE LAKE CHARLES LA
800 PM CST TUE JAN 27 2015

Note: "fair" indicates few or no clouds below 12,000 feet with no
significant weather and/or obstructions to visibility.


ACROSS SOUTHEAST TEXAS

CITY           SKY/WX    TMP DP  RH WIND       PRES   REMARKS
BEAUMONT       CLEAR     55  46  71 CALM      30.14R
BEAUMONT CITY    N/A     58  48  71 SE3       30.14S
ORANGE         CLEAR     56  49  79 CALM      30.15S
JASPER         CLEAR     52  47  82 CALM      30.16S
$$

ACROSS CENTRAL LOUISIANA

CITY           SKY/WX    TMP DP  RH WIND       PRES   REMARKS
LEESVILLE      CLEAR     54  45  71 SE2       30.14R
FULLERTON        N/A     53  40  61 CALM      30.12R
ALEXANDRIA INT CLEAR     54  43  66 CALM      30.13R
ESLER FIELD    CLEAR     51  42  71 CALM      30.15R
DERIDDER         N/A     54  45  72 CALM      30.16R
OAKDALE        CLEAR     46  44  91 CALM      30.15R
OPELOUSAS        N/A     53  44  70 CALM      30.14S
$$

ACROSS SOUTHWEST AND SOUTH CENTRAL LOUISIANA

CITY           SKY/WX    TMP DP  RH WIND       PRES   REMARKS
SULPHUR        CLEAR     56  51  84 CALM      30.15R
LAKE CHARLES   CLEAR     56  50  80 SW5       30.14R
CHENNAULT INT  NOT AVBL
CAMERON PHI      N/A     57  54  88 SW3       30.17S
DEQUINCY         N/A     53  49  85 CALM      30.14S
JENNINGS         N/A     56  45  66 CALM      30.14R
LAFAYETTE      CLEAR     56  43  61 CALM      30.14R
NEW IBERIA     CLEAR     57  43  59 N3        30.15R
ABBEVILLE        N/A     55  41  59 CALM      30.15R
PATTERSON      CLEAR     55  46  71 SW6       30.15R
SALT POINT       N/A     54  52  93 SW3       30.14R
$$

SELECTED SITES ACROSS THE REGION

CITY           SKY/WX    TMP DP  RH WIND       PRES   REMARKS
HOUSTON BUSH   PTCLDY    57  48  72 CALM      30.13R
HOUSTON HOBBY  PTCLDY    65  46  50 SE5       30.13R
GALVESTON      CLEAR     57  55  93 SE6       30.15R
COLLEGE STAT   CLEAR     60  47  61 CALM      30.13R
CONROE         CLEAR     52  47  83 CALM      30.14R
HUNTSVILLE     CLEAR     60  46  59 CALM      30.13R
LUFKIN         CLEAR     56  47  71 CALM      30.13S
SHREVEPORT     CLEAR     55  40  56 CALM      30.13R
MONROE         CLEAR     49  39  68 CALM      30.16S
NATCHEZ MS     CLEAR     52  36  54 NE3       30.16S
BATON ROUGE    CLEAR     54  36  50 NW3       30.14R
N.O. INTL ARPT CLEAR     56  42  59 CALM      30.13R
SLIDELL        CLEAR     50  43  77 CALM      30.12R
$$

MARINE REPORTS

STATION/POSITION TIME  TEMP    WIND        PRES    VSBY  WAVE
                       AIR SEA DIR/SP/G                  HT/PER
                 (UTC) (F)     (DEG/KT/KT) (MB)    (MI)  (FT/S)
BUOY 30 S HIGH I 0200   58 57  150/  4/  4 1020.4R         1/ 5
SEA RIM ST PARK  0200   58     200/  5/  6 1021.1S
PORT ARTHUR      0200      53  210/  2/  3 1020.6R
SABINE PASS N    0200   58 54  220/  5/  7 1020.5S
TEXAS POINT      NOT AVBL
CALCASIEU PASS   0200   58 55  250/  3/  3   N/A
LK CHARLES BEACH 0200   63 52              1020.7R
MARSH ISLAND     0100   60     290/  9/ 10   N/A
FRESH WATER LOCK 0200   55 56  240/  5/  5 1020.8R
AMERADA PASS     0200   56 48  240/  3/  6 1020.8R
$$


USA.gov is the U.S. government's official web portal to all federal, state and local government web resources and services.